Date,TemperatureHighF,TemperatureAvgF,TemperatureLowF,DewpointHighF,DewpointAvgF,DewpointLowF,HumidityHigh,HumidityAvg,HumidityLow,PressureMaxIn,PressureMinIn,WindSpeedMaxMPH,WindSpeedAvgMPH,GustSpeedMaxMPH,PrecipitationSumIn
2013-11-1,58.0,53.4,50.8,0.0,0.0,0.0,0,0,100,30.29,29.86,4,1,4,0.01
2013-11-2,52.2,49.3,43.9,0.0,0.0,0.0,0,0,100,29.90,29.51,15,4,15,0.57
2013-11-3,50.9,44.3,38.5,0.0,0.0,0.0,0,0,100,30.12,29.90,7,1,7,0.01
2013-11-4,47.9,43.5,38.3,0.0,0.0,0.0,0,0,100,30.20,30.06,4,1,4,0.03
2013-11-5,52.6,47.3,41.9,0.0,0.0,0.0,0,0,100,30.27,30.02,9,1,9,0.19
2013-11-6,51.3,46.4,41.2,0.0,0.0,0.0,0,0,100,30.33,30.04,4,1,4,0.20
2013-11-7,50.9,48.4,47.3,0.0,0.0,0.0,0,0,100,30.04,29.72,11,2,11,1.20
2013-11-8,52.0,47.1,41.9,0.0,0.0,0.0,0,0,100,30.17,29.98,12,2,12,0.00
2013-11-9,47.9,44.2,39.2,0.0,0.0,0.0,0,0,100,30.16,30.08,7,1,7,0.09
2013-11-10,49.7,46.8,45.2,0.0,0.0,0.0,0,0,100,30.16,30.09,9,2,9,0.01
2013-11-11,52.9,46.8,43.6,0.0,0.0,0.0,0,0,100,30.18,30.02,6,1,6,0.00
2013-11-12,55.3,50.0,44.5,0.0,0.0,0.0,0,0,100,30.39,30.04,6,1,6,0.26
2013-11-13,54.7,50.4,47.9,0.0,0.0,0.0,0,0,100,30.45,30.32,6,1,6,0.02
2013-11-14,49.7,46.3,42.5,0.0,0.0,0.0,0,0,100,30.32,30.07,3,1,3,0.00
2013-11-15,46.6,44.3,41.9,0.0,0.0,0.0,0,0,100,30.08,29.35,14,2,14,0.11
2013-11-16,47.9,43.5,38.9,0.0,0.0,0.0,0,0,100,29.79,29.36,12,3,12,0.00
2013-11-17,47.9,45.2,42.1,0.0,0.0,0.0,0,0,100,29.92,29.78,12,2,12,0.36
2013-11-18,50.6,48.0,45.5,0.0,0.0,0.0,0,0,100,29.92,29.57,8,2,8,0.99
2013-11-19,50.8,44.3,37.6,0.0,0.0,0.0,0,0,100,30.07,29.57,10,2,10,0.09
2013-11-20,41.9,36.7,33.5,0.0,0.0,0.0,0,0,100,30.51,30.07,10,2,10,0.00
2013-11-21,41.0,36.9,34.2,0.0,0.0,0.0,0,0,100,30.66,30.50,7,2,8,0.00
2013-11-22,43.9,38.8,36.0,0.0,0.0,0.0,0,0,100,30.64,30.45,10,2,10,0.00
2013-11-23,46.1,40.4,35.8,0.0,0.0,0.0,0,0,100,30.45,30.21,7,1,7,0.00
2013-11-24,46.3,39.9,36.4,0.0,0.0,0.0,0,0,100,30.27,30.17,5,1,5,0.00
2013-11-25,47.0,39.3,34.6,0.0,0.0,0.0,0,0,100,30.33,30.26,4,1,4,0.01
2013-11-26,45.7,41.1,35.8,0.0,0.0,0.0,0,0,100,30.29,30.11,4,1,4,0.01
2013-11-27,50.2,44.1,37.6,0.0,0.0,0.0,0,0,100,30.11,29.98,5,1,5,0.00
2013-11-28,45.7,39.5,36.0,0.0,0.0,0.0,0,0,100,30.19,30.04,2,1,4,0.01
2013-11-29,45.7,43.1,37.6,0.0,0.0,0.0,0,0,100,30.33,30.19,3,0,3,0.01
2013-11-30,48.2,46.4,43.6,0.0,0.0,0.0,0,0,100,30.34,30.11,9,2,9,0.09